Stations météo

réclame
Mon MeteoGroup
Spa/La Sauveniere, Belgique (6490): Température de l'air & dewpoint: 19.09.2017 22:00:00 - 25.09.2017 22:00:00 (CEST)Spa/La Sauveniere, Belgique (6490): Vitesse du vent & gusts: 19.09.2017 22:00:00 - 25.09.2017 22:00:00 (CEST)Spa/La Sauveniere, Belgique (6490): Direction du vent: 19.09.2017 22:00:00 - 25.09.2017 22:00:00 (CEST)Spa/La Sauveniere, Belgique (6490): reduced air pressure: 19.09.2017 22:00:00 - 25.09.2017 22:00:00 (CEST)Spa/La Sauveniere, Belgique (6490): visibility: 19.09.2017 22:00:00 - 25.09.2017 22:00:00 (CEST)
Date & Time tt [°C] td [°C] ff [km/h] ff [knt] fx [km/h] fx [knt] dd ppp [hPa] vv [km]
25.09.2017 22:00:00 12,3 7,1 14 8 22 12 SE 1020,8 35
25.09.2017 21:00:00 12,7 7,0 11 6 18 10 SE 1020,8 40
25.09.2017 20:00:00 13,3 6,6 7 4 - - SE 1020,5 45
25.09.2017 19:00:00 14,4 7,4 7 4 14 8 SSE 1020,1 28
25.09.2017 18:00:00 16,3 8,0 11 6 14 8 SE 1019,4 35
25.09.2017 17:00:00 16,6 8,2 7 4 - - E 1019,2 45
25.09.2017 16:00:00 16,1 7,3 7 4 14 8 E 1019,4 45
25.09.2017 15:00:00 17,3 8,6 4 2 14 8 - 1019,1 30
25.09.2017 14:00:00 16,0 8,5 7 4 - - SE 1019,7 40
25.09.2017 13:00:00 15,8 8,8 7 4 18 10 SE 1019,7 40
25.09.2017 12:00:00 15,9 7,9 11 6 18 10 SE 1020,0 30
25.09.2017 11:00:00 14,9 9,5 11 6 - - SSE 1020,3 35
25.09.2017 10:00:00 14,0 9,9 11 6 22 12 SE 1020,3 29
25.09.2017 09:00:00 11,4 8,0 14 8 22 12 SSE 1020,9 18
25.09.2017 08:00:00 10,4 7,5 14 8 - - SSE 1021,0 -
25.09.2017 07:00:00 10,5 7,7 18 10 25 14 SSE 1020,9 -
25.09.2017 06:00:00 10,6 7,6 18 10 25 14 SSE 1021,0 -
25.09.2017 05:00:00 10,9 7,6 18 10 - - SSE 1021,3 -
25.09.2017 04:00:00 11,0 7,9 18 10 25 14 SSE 1021,5 -
25.09.2017 03:00:00 11,4 7,9 18 10 25 14 SSE 1021,6 10
25.09.2017 02:00:00 11,5 8,0 14 8 - - SSE 1021,9 -
25.09.2017 01:00:00 11,3 7,5 18 10 25 14 SSE 1022,3 10
25.09.2017 00:00:00 12,1 7,7 14 8 25 14 SSE 1022,5 13
24.09.2017 23:00:00 12,3 7,5 14 8 - - SE 1022,4 12
24.09.2017 22:00:00 12,5 7,1 18 10 22 12 SE 1022,5 14
24.09.2017 21:00:00 12,9 6,7 14 8 22 12 SE 1022,4 17
24.09.2017 20:00:00 13,7 6,8 14 8 - - ESE 1022,0 25
24.09.2017 19:00:00 15,2 8,2 7 4 14 8 E 1021,6 23
24.09.2017 18:00:00 16,3 9,3 7 4 18 10 NE 1021,3 25
24.09.2017 17:00:00 17,5 8,5 7 4 - - N 1021,2 20
24.09.2017 16:00:00 16,5 7,5 4 2 7 4 WSW 1021,6 29
24.09.2017 15:00:00 17,6 7,0 4 2 18 10 N 1021,6 30
24.09.2017 14:00:00 17,3 8,5 4 2 - - - 1021,7 20
24.09.2017 13:00:00 16,4 8,6 7 4 18 10 NNW 1022,1 22
24.09.2017 12:00:00 16,1 9,7 11 6 18 10 SE 1022,3 21
24.09.2017 11:00:00 15,2 9,9 11 6 - - SE 1022,5 12
24.09.2017 10:00:00 13,8 9,2 11 6 18 10 SSE 1022,5 -
24.09.2017 09:00:00 11,2 6,2 14 8 18 10 SSE 1022,7 4,9
24.09.2017 08:00:00 9,9 3,6 14 8 - - SSE 1022,7 3,6
24.09.2017 07:00:00 10,5 10,5 14 8 18 10 SSE 1022,2 4,8
24.09.2017 06:00:00 10,5 8,9 14 8 18 10 SSE 1022,2 -
24.09.2017 05:00:00 10,6 7,7 14 8 - - SSE 1022,4 -
24.09.2017 04:00:00 11,1 7,6 14 8 18 10 SSE 1022,3 -
24.09.2017 03:00:00 10,8 7,5 14 8 18 10 SSE 1022,5 -
24.09.2017 02:00:00 10,8 7,4 14 8 - - SE 1022,6 -
24.09.2017 01:00:00 10,8 7,2 14 8 22 12 SE 1022,9 -
24.09.2017 00:00:00 10,9 7,1 14 8 22 12 SE 1023,0 -
23.09.2017 23:00:00 11,0 6,5 11 6 - - ESE 1023,1 -
23.09.2017 22:00:00 10,0 4,7 7 4 11 6 E 1023,4 9
23.09.2017 21:00:00 10,0 5,2 0 0 4 2 N 1023,4 14
23.09.2017 20:00:00 11,2 6,0 4 2 - - ESE 1023,0 14
23.09.2017 19:00:00 13,2 8,0 4 2 18 10 NE 1022,6 17
23.09.2017 18:00:00 14,5 8,5 7 4 22 12 N 1022,2 15
23.09.2017 17:00:00 14,6 8,1 11 6 - - N 1022,5 18
23.09.2017 16:00:00 15,4 7,3 11 6 18 10 NW 1022,7 19
23.09.2017 15:00:00 14,9 7,1 7 4 18 10 NW 1023,4 23
23.09.2017 14:00:00 14,6 7,5 7 4 - - N 1023,5 15
23.09.2017 13:00:00 13,9 6,1 4 2 14 8 - 1023,9 25
23.09.2017 12:00:00 12,6 7,5 7 4 14 8 N 1024,6 12
23.09.2017 11:00:00 11,9 9,1 7 4 - - NNW 1024,7 9
23.09.2017 10:00:00 9,0 8,7 7 4 7 4 ENE 1025,1 0,4
23.09.2017 09:00:00 8,1 5,5 0 0 4 2 N 1025,1 2,9
23.09.2017 08:00:00 7,4 4,9 4 2 - - SSE 1025,0 3,0
23.09.2017 07:00:00 8,2 5,4 4 2 7 4 SE 1024,8 1,9
23.09.2017 06:00:00 9,6 6,2 0 0 7 4 N 1024,5 2,2
23.09.2017 05:00:00 9,6 5,9 0 0 - - N 1024,6 1,8
23.09.2017 04:00:00 9,6 6,6 4 2 7 4 SSE 1024,5 2,1
23.09.2017 03:00:00 11,3 10,8 4 2 11 6 NE 1024,0 1,3
23.09.2017 02:00:00 11,1 7,9 4 2 - - N 1024,1 0,3
23.09.2017 01:00:00 11,9 10,4 4 2 11 6 NNW 1023,9 -
23.09.2017 00:00:00 12,1 8,2 7 4 7 4 WNW 1023,7 2,3
22.09.2017 23:00:00 12,0 7,3 4 2 - - SW 1023,8 4,3
22.09.2017 22:00:00 12,2 7,4 4 2 4 2 WSW 1023,5 -
22.09.2017 21:00:00 12,5 7,3 0 0 4 2 N 1023,1 14
22.09.2017 20:00:00 13,0 7,8 0 0 - - N 1022,3 25
22.09.2017 19:00:00 14,0 8,4 7 4 14 8 NW 1021,9 30
22.09.2017 18:00:00 14,6 8,1 7 4 14 8 NW 1021,5 30
22.09.2017 17:00:00 15,4 8,1 11 6 - - W 1021,1 25
22.09.2017 16:00:00 16,0 7,8 7 4 18 10 NNW 1020,8 27
22.09.2017 15:00:00 16,1 7,7 7 4 18 10 WNW 1020,7 35
22.09.2017 14:00:00 15,7 7,5 7 4 - - - 1020,8 29
22.09.2017 13:00:00 15,1 6,8 4 2 7 4 N 1020,6 30
22.09.2017 12:00:00 14,7 8,5 4 2 11 6 - 1020,8 30
22.09.2017 11:00:00 13,1 7,4 7 4 - - WNW 1021,0 35
22.09.2017 10:00:00 13,2 9,1 4 2 11 6 SW 1020,5 30
22.09.2017 09:00:00 10,0 6,5 7 4 11 6 S 1020,8 24
22.09.2017 08:00:00 8,1 4,7 11 6 - - S 1021,0 17
22.09.2017 07:00:00 8,8 4,9 11 6 14 8 S 1020,5 22
22.09.2017 06:00:00 8,5 4,7 14 8 18 10 S 1020,5 21
22.09.2017 05:00:00 9,8 5,5 14 8 - - SSE 1020,2 23
22.09.2017 04:00:00 9,8 5,4 14 8 18 10 SSE 1020,3 21
22.09.2017 03:00:00 10,4 5,7 14 8 22 12 SSE 1020,6 20
22.09.2017 02:00:00 10,6 5,5 18 10 - - SSE 1020,5 24
22.09.2017 01:00:00 10,3 4,8 7 4 14 8 S 1020,6 35
22.09.2017 00:00:00 9,1 4,1 7 4 11 6 S 1020,9 30
21.09.2017 23:00:00 9,4 4,1 7 4 - - S 1020,8 30
21.09.2017 22:00:00 10,2 3,9 11 6 14 8 S 1020,5 40
21.09.2017 21:00:00 10,4 3,7 7 4 11 6 S 1020,4 45
21.09.2017 20:00:00 11,1 4,2 4 2 - - S 1020,1 40
21.09.2017 19:00:00 13,9 5,5 4 2 18 10 SSE 1019,3 45
21.09.2017 18:00:00 15,3 6,0 11 6 22 12 SSE 1019,0 30
21.09.2017 17:00:00 15,5 6,2 7 4 - - S 1019,0 40
21.09.2017 16:00:00 15,7 6,1 11 6 18 10 SSW 1019,2 40
21.09.2017 15:00:00 - - - - - - - - -
21.09.2017 14:00:00 - - - - - - - - -
21.09.2017 13:00:00 - - - - - - - - -
21.09.2017 12:00:00 - - - - - - - - -
21.09.2017 11:00:00 11,4 5,7 14 8 - - SSE 1021,5 35
21.09.2017 10:00:00 9,9 4,0 11 6 22 12 SSE 1021,7 28
21.09.2017 09:00:00 9,1 2,2 18 10 25 14 SSE 1021,6 22
21.09.2017 08:00:00 7,2 7,2 22 12 - - SSE 1022,0 -
21.09.2017 07:00:00 7,2 4,4 18 10 22 12 SSE 1022,0 13
21.09.2017 06:00:00 7,8 4,9 18 10 22 12 SSE 1021,9 19
21.09.2017 05:00:00 8,0 5,0 14 8 - - SSE 1021,9 23
21.09.2017 04:00:00 8,1 5,0 14 8 18 10 S 1022,1 27
21.09.2017 03:00:00 8,3 5,1 14 8 18 10 SSE 1022,3 27
21.09.2017 02:00:00 8,5 5,1 14 8 - - SSE 1022,3 30
21.09.2017 01:00:00 8,4 4,9 14 8 18 10 SSE 1022,4 30
21.09.2017 00:00:00 8,7 4,8 14 8 14 8 SSE 1022,4 30
20.09.2017 23:00:00 9,0 5,0 11 6 - - S 1022,3 40
20.09.2017 22:00:00 9,2 4,7 11 6 14 8 S 1022,3 40
20.09.2017 21:00:00 10,2 5,1 7 4 14 8 SSW 1022,1 45
20.09.2017 20:00:00 11,3 5,9 7 4 - - SW 1021,6 45
20.09.2017 19:00:00 11,7 5,9 7 4 18 10 SSW 1021,3 40
20.09.2017 18:00:00 12,8 6,2 11 6 22 12 W 1021,1 40
20.09.2017 17:00:00 12,6 6,2 11 6 - - W 1021,3 35
20.09.2017 16:00:00 12,8 6,0 11 6 25 14 W 1021,4 35
20.09.2017 15:00:00 12,5 5,7 11 6 22 12 W 1021,5 35
20.09.2017 14:00:00 12,3 5,8 11 6 - - W 1022,0 35
20.09.2017 13:00:00 11,6 5,2 11 6 29 16 WSW 1022,3 30
20.09.2017 12:00:00 10,9 5,7 11 6 29 16 WNW 1022,5 35
20.09.2017 11:00:00 10,3 6,6 11 6 - - WSW 1022,4 14
20.09.2017 10:00:00 9,4 8,2 7 4 18 10 WSW 1022,3 5
20.09.2017 09:00:00 9,2 6,4 7 4 18 10 WSW 1022,2 3,9
20.09.2017 08:00:00 9,0 5,6 11 6 - - WSW 1022,2 1,5
20.09.2017 07:00:00 8,7 4,7 7 4 11 6 WSW 1022,0 1,2
20.09.2017 06:00:00 8,6 3,4 7 4 18 10 SW 1021,9 2,0
20.09.2017 05:00:00 8,8 2,5 7 4 - - WSW 1022,0 1,0
20.09.2017 04:00:00 8,3 8,3 7 4 11 6 W 1021,9 3,5
20.09.2017 03:00:00 9,1 6,6 7 4 11 6 SW 1022,0 4,4
20.09.2017 02:00:00 8,9 6,2 7 4 - - WSW 1022,2 5
20.09.2017 01:00:00 9,1 6,4 7 4 11 6 WSW 1022,2 -
20.09.2017 00:00:00 9,0 6,2 7 4 14 8 WSW 1022,2 -
19.09.2017 23:00:00 8,8 5,3 7 4 - - SW 1022,2 -
19.09.2017 22:00:00 8,3 5,3 4 2 4 2 SSW 1022,0 3,1

tt = Température de l'air
td = dewpoint
ff = Vitesse du vent
fx = gusts
dd = Direction du vent
ppp = reduced air pressure
vv = visibility

stations d'obs. à proximité